STARLINK AS (44275 NORAD) Tracking and Keplerian Element Data

This shows tracking and keplerian element data for the satellite.

Feedback or suggestion? Click here.




ElementValue
Catalog44275
NameSTARLINK AS
Epoch Orbit464
Epoch Day174.01659499
Epoch Year2019
RAAN37.4001
Inclination53.0019
Eccentricity0.0002502
Argument of Perigee104.7021
Mean Anonmoly255.4346
Mean Motion15.05555503
Decay Rate1.826E-05
L11 44275U 19029AS 19174.01659499 .00001826 00000-0 14460-3 0 9993
L22 44275 53.0019 37.4001 0002502 104.7021 255.4346 15.05555503 4648

Live tracking and technical data element details for STARLINK AS (NORAD 44275). STARLINK AS can be tracked NOW for your location showing map with azimuth and elevation plus other details from your city location.

Track the satellite on the map from your city or location and see movement details for azimuth, elevation, latitude, longitude, range, height, and movement on the map or in text.







IsCatalogInMostPopularTable: catalog: 44275, numindb: 24
Update: records affected: 1



GetName: 44275 STARLINK AS

Hit Count: updated at: Sun, 21 Jul 2019 21:24:21 GMT